Flag for U.S.A. Weather past 2 weeks in Orlando, Florida, U.S.A.

Now
75 °F

Passing clouds.


Feels Like: 72 °F
Forecast: 76 / 90 °F
Wind: No wind

Location: Orlando Executive Airport

Current Time: Jul 29, 2015 at 8:08:28 AM

Latest Report: Jul 29, 2015 at 6:53 AM


Visibility: 10 mi

Pressure: 29.96 "Hg

Humidity: 100%

Dew point: 75 °F

Location of OrlandoLocation

Historic Weather in Orlando — Graph

°F

Orlando temperature yesterday

Maximum temperature yesterday: 88 °F (at 1:53 PM)
Minimum temperature yesterday: 77 °F (at 7:53 PM)
Average temperature yesterday: 80 °F

Past Weeks' High & Low Weather Summary

 TemperatureHumidityPressure
High94 °F (Jul 23, 3:53 PM)100% (Jul 17, 5:53 PM)30.07 "Hg (Jul 17, 5:53 PM)
Low75 °F (Jul 29, 6:53 AM)50% (Jul 15, 1:53 PM)29.84 "Hg (Jul 25, 5:00 PM)
Average82 °F84%29.97 "Hg
* Reported Jul 14 6:53 AM — Jul 29 6:53 AM, Orlando, Weather by CustomWeather, © 2015

Note: Actual official high and low records may vary slightly from our data, if they occured in-between our weather recording intervals... More about our weather records

Advertising

Orlando weather history for previous 24 hours

 ConditionsComfort  
Time TempWeatherWind HumidityBarometerVisibility
6:53 AM
Wed, Jul 29
75 °FPassing clouds.No wind100%29.96 "Hg10 mi
5:53 AM76 °FOvercast.3 mph100%29.94 "Hg10 mi
4:53 AM76 °FPassing clouds.5 mph100%29.95 "Hg10 mi
3:53 AM76 °FClear.5 mph100%29.95 "Hg10 mi
2:53 AM76 °FClear.6 mph100%29.95 "Hg10 mi
1:53 AM76 °FClear.7 mph100%29.96 "Hg10 mi
12:53 AM77 °FClear.6 mph100%29.97 "Hg10 mi
12:03 AM77 °FPassing clouds.7 mph100%29.96 "Hg10 mi
11:53 PM
Tue, Jul 28
77 °FPartly cloudy.8 mph100%29.97 "Hg10 mi
10:53 PM79 °FClear.7 mph97%29.98 "Hg10 mi
9:53 PM78 °FClear.8 mph100%29.97 "Hg10 mi
8:53 PM77 °FPassing clouds.3 mph100%29.97 "Hg10 mi
7:53 PM77 °FLight rain. Fog.10 mph96%29.96 "Hg3 mi
7:03 PM79 °FLight rain. Fog.12 mph100%29.92 "Hg3 mi
7:00 PM79 °FLight rain. Fog.10 mph100%29.92 "Hg6 mi
5:53 PM79 °FPartly sunny.12 mph100%29.93 "Hg10 mi
4:53 PM79 °FLight rain. Mostly cloudy.9 mph97%29.93 "Hg7 mi
3:57 PM78 °FThundershowers. Fog.12 mph96%29.94 "Hg2 mi
3:02 PM79 °FHeavy rain. Fog.15 mph94%29.93 "Hg2 mi
1:53 PM88 °FBroken clouds.12 mph67%29.95 "Hg10 mi
12:53 PM82 °FFog.7 mph91%29.96 "Hg5 mi
11:55 AM78 °FLight rain. Fog.9 mph93%29.98 "Hg3 mi
10:53 AM86 °FBroken clouds.12 mph75%29.97 "Hg10 mi
9:53 AM83 °FPartly sunny.14 mph82%29.98 "Hg10 mi
8:53 AM80 °FMostly cloudy.12 mph90%29.98 "Hg10 mi
Weather by CustomWeather, © 2015

See weather overviewHow to use our weather pages